Tracking 25193 objects as of 17-Jan-2022
HD Live streaming from Space Station
objects crossing your sky now

IRIDIUM 44

Track IRIDIUM 44 now!
10-day predictions
IRIDIUM 44 is classified as:


NORAD ID: 25078
Int'l Code: 1997-077B
Perigee: 768.5 km
Apogee: 773.3 km
Inclination: 86.4 °
Period: 100.1 minutes
Semi major axis: 7141 km
RCS: 3.743 m2 (large)
Launch date: December 8, 1997
Source: United States (US)
Launch site: Taiyaun Space Center, China (TSC)
aabbcc
Your satellite tracking list
Your tracking list is empty




NASA's NSSDC Master Catalog

Two Line Element Set (TLE):
1 25078U 97077B   22017.51366845  .00000211  00000-0  62528-4 0  9993
2 25078  86.3951  26.6003 0003366 124.2173 235.9345 14.38420779264403
Source of the keplerian elements: AFSPC